timestamp,wind_dir_avg,wind_spd_avg,wind_spd_max_dir,wind_spd_gust,battery_voltage,lat,long
2022-11-09 00:04:00+00:00,321.0,9.0,322.0,10.81,12.49,47.59359,-54.27349
2022-11-09 00:14:00+00:00,325.0,8.53,322.0,10.22,12.41,47.59359,-54.27349
2022-11-09 00:24:00+00:00,327.0,9.1,323.0,10.6,12.41,47.59359,-54.27349
2022-11-09 00:34:00+00:00,331.0,9.57,331.0,10.57,12.41,47.59359,-54.27349
2022-11-09 00:44:00+00:00,327.0,9.03,335.0,10.37,12.41,47.59359,-54.27349
2022-11-09 00:54:00+00:00,320.0,8.46,322.0,10.36,12.41,47.59359,-54.27349
2022-11-09 01:04:00+00:00,326.0,8.81,328.0,10.05,12.41,47.59359,-54.27349
2022-11-09 01:14:00+00:00,310.0,8.36,311.0,9.68,12.41,47.59359,-54.27349
2022-11-09 01:24:00+00:00,338.0,10.83,339.0,14.4,12.41,47.59359,-54.27349
2022-11-09 01:34:00+00:00,338.0,9.68,335.0,11.17,12.41,47.59359,-54.27349
2022-11-09 01:44:00+00:00,340.0,9.29,337.0,10.85,12.41,47.59359,-54.27349
2022-11-09 01:54:00+00:00,340.0,9.0,343.0,11.0,12.41,47.59359,-54.27349
2022-11-09 02:04:00+00:00,331.0,8.61,333.0,10.22,12.41,47.59359,-54.27349
2022-11-09 02:14:00+00:00,322.0,9.43,320.0,10.55,12.41,47.59359,-54.27349
2022-11-09 02:24:00+00:00,321.0,9.1,313.0,10.12,12.41,47.59359,-54.27349
2022-11-09 02:34:00+00:00,325.0,9.07,323.0,10.09,12.41,47.59359,-54.27349
2022-11-09 02:44:00+00:00,324.0,9.96,322.0,12.51,12.41,47.59359,-54.27349
2022-11-09 02:54:00+00:00,322.0,10.25,318.0,11.54,12.41,47.59359,-54.27349
2022-11-09 03:04:00+00:00,320.0,10.55,325.0,12.02,12.41,47.59359,-54.27349
2022-11-09 03:14:00+00:00,319.0,10.64,324.0,12.97,12.41,47.59359,-54.27349
2022-11-09 03:24:00+00:00,320.0,10.76,326.0,12.0,12.41,47.59359,-54.27349
2022-11-09 03:34:00+00:00,320.0,10.97,323.0,11.91,12.41,47.59359,-54.27349
2022-11-09 03:44:00+00:00,325.0,11.77,326.0,13.31,12.41,47.59359,-54.27349
2022-11-09 03:54:00+00:00,323.0,11.04,326.0,12.73,12.41,47.59359,-54.27349
2022-11-09 04:04:00+00:00,324.0,9.65,324.0,11.45,12.41,47.59359,-54.27349
2022-11-09 04:14:00+00:00,330.0,10.38,327.0,11.5,12.41,47.59359,-54.27349
2022-11-09 04:24:00+00:00,330.0,11.48,332.0,13.23,12.41,47.59359,-54.27349
2022-11-09 04:34:00+00:00,322.0,12.16,323.0,13.44,12.41,47.59359,-54.27349
2022-11-09 04:44:00+00:00,321.0,10.24,321.0,11.62,12.41,47.59359,-54.27349
2022-11-09 04:54:00+00:00,322.0,11.9,326.0,13.94,12.41,47.59359,-54.27349
2022-11-09 05:04:00+00:00,324.0,13.19,322.0,15.48,12.41,47.59359,-54.27349
2022-11-09 05:14:00+00:00,318.0,11.41,317.0,13.76,12.33,47.59359,-54.27349
2022-11-09 05:24:00+00:00,318.0,11.87,318.0,13.9,12.33,47.59359,-54.27349
2022-11-09 05:34:00+00:00,316.0,10.36,321.0,11.65,12.33,47.59359,-54.27349
2022-11-09 05:44:00+00:00,319.0,11.91,312.0,14.34,12.33,47.59359,-54.27349
2022-11-09 05:54:00+00:00,317.0,11.85,321.0,13.59,12.33,47.59359,-54.27349
2022-11-09 06:04:00+00:00,321.0,13.25,322.0,15.43,12.33,47.59359,-54.27349
2022-11-09 06:14:00+00:00,325.0,10.56,328.0,13.47,12.41,47.59359,-54.27349
2022-11-09 06:24:00+00:00,317.0,10.86,321.0,13.07,12.41,47.59359,-54.27349
2022-11-09 06:34:00+00:00,318.0,10.62,309.0,13.39,12.41,47.59359,-54.27349
2022-11-09 06:44:00+00:00,311.0,9.81,312.0,12.1,12.41,47.59359,-54.27349
2022-11-09 06:54:00+00:00,312.0,11.51,315.0,14.33,12.41,47.59359,-54.27349
2022-11-09 07:04:00+00:00,316.0,11.96,318.0,14.43,12.41,47.59359,-54.27349
2022-11-09 07:14:00+00:00,312.0,12.17,310.0,14.44,12.33,47.59359,-54.27349
2022-11-09 07:24:00+00:00,318.0,11.76,319.0,13.58,12.33,47.59359,-54.27349
2022-11-09 07:34:00+00:00,314.0,10.74,313.0,13.04,12.33,47.59359,-54.27349
2022-11-09 07:44:00+00:00,321.0,11.98,325.0,14.22,12.33,47.59359,-54.27349
2022-11-09 07:54:00+00:00,319.0,11.28,321.0,13.28,12.33,47.59359,-54.27349
2022-11-09 08:04:00+00:00,318.0,11.64,324.0,13.62,12.33,47.59359,-54.27349
2022-11-09 08:14:01+00:00,323.0,12.61,330.0,14.51,12.33,47.59359,-54.27349
2022-11-09 08:24:01+00:00,315.0,11.26,318.0,12.93,12.33,47.59359,-54.27349
2022-11-09 08:34:01+00:00,317.0,11.05,321.0,14.14,12.33,47.59359,-54.27349
2022-11-09 08:44:01+00:00,317.0,11.08,324.0,13.66,12.33,47.59359,-54.27349
2022-11-09 08:54:01+00:00,319.0,12.32,320.0,14.53,12.33,47.59359,-54.27349
2022-11-09 09:04:01+00:00,321.0,12.68,326.0,15.37,12.33,47.59359,-54.27349
2022-11-09 09:14:00+00:00,320.0,12.52,324.0,14.68,12.25,47.59359,-54.27349
2022-11-09 09:24:00+00:00,319.0,12.71,317.0,14.61,12.25,47.59359,-54.27349
2022-11-09 09:34:00+00:00,322.0,13.75,327.0,16.52,12.25,47.59359,-54.27349
2022-11-09 09:44:00+00:00,312.0,11.11,311.0,12.73,12.25,47.59359,-54.27349
2022-11-09 09:54:00+00:00,319.0,11.68,314.0,13.85,12.25,47.59359,-54.27349
2022-11-09 10:04:00+00:00,320.0,11.88,318.0,13.97,12.25,47.59359,-54.27349
2022-11-09 10:14:00+00:00,314.0,10.54,309.0,12.59,12.33,47.59359,-54.27349
2022-11-09 10:24:00+00:00,314.0,10.69,322.0,12.72,12.33,47.59359,-54.27349
2022-11-09 10:34:00+00:00,318.0,11.02,319.0,14.15,12.33,47.59359,-54.27349
2022-11-09 10:44:00+00:00,316.0,10.71,315.0,12.85,12.33,47.59359,-54.27349
2022-11-09 10:54:00+00:00,315.0,11.07,314.0,12.81,12.33,47.59359,-54.27349
2022-11-09 11:04:00+00:00,316.0,11.4,321.0,13.65,12.33,47.59359,-54.27349
2022-11-09 11:14:00+00:00,322.0,12.56,325.0,14.86,12.49,47.59359,-54.27349
2022-11-09 11:24:00+00:00,314.0,11.2,314.0,12.63,12.49,47.59359,-54.27349
2022-11-09 11:34:00+00:00,322.0,12.34,324.0,15.39,12.49,47.59359,-54.27349
2022-11-09 11:44:00+00:00,330.0,11.06,319.0,13.53,12.49,47.59359,-54.27349
2022-11-09 11:54:00+00:00,322.0,10.14,317.0,13.72,12.49,47.59359,-54.27349
2022-11-09 12:04:00+00:00,322.0,10.42,320.0,13.32,12.49,47.59359,-54.27349
2022-11-09 12:14:00+00:00,320.0,12.69,322.0,14.49,13.68,47.59359,-54.27349
2022-11-09 12:24:00+00:00,316.0,11.59,316.0,14.33,13.68,47.59359,-54.27349
2022-11-09 12:34:00+00:00,320.0,12.11,327.0,14.59,13.68,47.59359,-54.27349
2022-11-09 12:44:00+00:00,319.0,11.42,314.0,13.63,13.68,47.59359,-54.27349
2022-11-09 12:54:00+00:00,330.0,12.38,325.0,15.26,13.68,47.59359,-54.27349
2022-11-09 13:04:00+00:00,332.0,14.55,326.0,17.45,13.68,47.59359,-54.27349
2022-11-09 13:14:00+00:00,332.0,13.07,328.0,16.72,14.0,47.59359,-54.27349
2022-11-09 13:24:00+00:00,329.0,15.28,332.0,18.43,14.0,47.59359,-54.27349
2022-11-09 13:34:00+00:00,340.0,13.28,334.0,16.16,14.0,47.59359,-54.27349
2022-11-09 13:44:00+00:00,331.0,15.05,327.0,17.8,14.0,47.59359,-54.27349
2022-11-09 13:54:00+00:00,336.0,15.48,330.0,17.75,14.0,47.59359,-54.27349
2022-11-09 14:04:00+00:00,332.0,14.66,330.0,16.43,14.0,47.59359,-54.27349
2022-11-09 14:14:00+00:00,333.0,12.21,331.0,16.74,13.68,47.59359,-54.27349
2022-11-09 14:24:00+00:00,331.0,13.65,332.0,19.27,13.68,47.59359,-54.27349
2022-11-09 14:34:00+00:00,344.0,15.56,336.0,18.35,13.68,47.59359,-54.27349
2022-11-09 14:44:00+00:00,331.0,13.82,328.0,16.76,13.68,47.59359,-54.27349
2022-11-09 14:54:00+00:00,332.0,15.81,330.0,18.85,13.68,47.59359,-54.27349
2022-11-09 15:04:00+00:00,328.0,14.73,321.0,17.22,13.68,47.59359,-54.27349
2022-11-09 15:14:00+00:00,340.0,14.38,348.0,17.59,14.64,47.59359,-54.27349
2022-11-09 15:24:00+00:00,347.0,13.68,347.0,16.74,14.64,47.59359,-54.27349
2022-11-09 15:34:00+00:00,336.0,13.13,339.0,15.32,14.64,47.59359,-54.27349
2022-11-09 15:44:00+00:00,341.0,14.55,351.0,17.65,14.64,47.59359,-54.27349
2022-11-09 15:54:00+00:00,348.0,13.27,345.0,15.27,14.64,47.59359,-54.27349
2022-11-09 16:04:00+00:00,354.0,13.87,359.0,16.32,14.64,47.59359,-54.27349
2022-11-09 16:14:01+00:00,338.0,12.63,347.0,14.42,13.68,47.59359,-54.27349
2022-11-09 16:24:01+00:00,350.0,13.94,355.0,16.11,13.68,47.59359,-54.27349
2022-11-09 16:34:01+00:00,352.0,11.98,357.0,14.27,13.68,47.59359,-54.27349
2022-11-09 16:44:01+00:00,351.0,12.79,358.0,15.07,13.68,47.59359,-54.27349
2022-11-09 16:54:01+00:00,343.0,12.73,332.0,15.01,13.68,47.59359,-54.27349
2022-11-09 17:04:01+00:00,336.0,13.8,334.0,18.28,13.68,47.59359,-54.27349
2022-11-09 17:14:01+00:00,329.0,12.78,327.0,15.06,13.68,47.59359,-54.27349
2022-11-09 17:24:01+00:00,337.0,12.82,326.0,14.48,13.68,47.59359,-54.27349
2022-11-09 17:34:01+00:00,351.0,13.32,350.0,15.74,13.68,47.59359,-54.27349
2022-11-09 17:44:01+00:00,342.0,10.36,332.0,12.65,13.68,47.59359,-54.27349
2022-11-09 17:54:01+00:00,325.0,11.65,326.0,15.2,13.68,47.59359,-54.27349
2022-11-09 18:04:01+00:00,342.0,12.25,335.0,16.88,13.68,47.59359,-54.27349
2022-11-09 18:14:01+00:00,343.0,12.71,345.0,15.45,13.68,47.59359,-54.27349
2022-11-09 18:24:01+00:00,353.0,12.46,355.0,14.12,13.68,47.59359,-54.27349
2022-11-09 18:34:01+00:00,335.0,13.44,334.0,15.32,13.68,47.59359,-54.27349
2022-11-09 18:44:01+00:00,349.0,14.0,347.0,17.09,13.68,47.59359,-54.27349
2022-11-09 18:54:01+00:00,349.0,11.94,352.0,14.51,13.68,47.59359,-54.27349
2022-11-09 19:04:01+00:00,351.0,11.92,355.0,13.24,13.68,47.59359,-54.27349
2022-11-09 19:14:01+00:00,347.0,11.55,344.0,14.47,13.53,47.59359,-54.27349
2022-11-09 19:24:01+00:00,347.0,11.79,347.0,13.38,13.53,47.59359,-54.27349
2022-11-09 19:34:01+00:00,347.0,10.19,344.0,11.76,13.53,47.59359,-54.27349
2022-11-09 19:44:01+00:00,347.0,10.93,352.0,12.62,13.53,47.59359,-54.27349
2022-11-09 19:54:01+00:00,348.0,10.22,350.0,11.44,13.53,47.59359,-54.27349
2022-11-09 20:04:01+00:00,330.0,11.08,326.0,14.55,13.53,47.59359,-54.27349
2022-11-09 20:14:00+00:00,334.0,12.34,324.0,15.7,13.05,47.59359,-54.27349
2022-11-09 20:24:00+00:00,350.0,11.38,359.0,12.6,13.05,47.59359,-54.27349
2022-11-09 20:34:00+00:00,349.0,9.82,353.0,13.03,13.05,47.59359,-54.27349
2022-11-09 20:44:00+00:00,348.0,10.16,342.0,11.45,13.05,47.59359,-54.27349
2022-11-09 20:54:00+00:00,342.0,10.02,335.0,11.9,13.05,47.59359,-54.27349
2022-11-09 21:04:00+00:00,344.0,9.94,346.0,11.77,13.05,47.59359,-54.27349
2022-11-09 21:14:00+00:00,347.0,9.65,354.0,12.64,12.57,47.59359,-54.27349
2022-11-09 21:24:00+00:00,340.0,8.97,344.0,11.71,12.57,47.59359,-54.27349
2022-11-09 21:34:00+00:00,331.0,10.23,315.0,12.89,12.57,47.59359,-54.27349
2022-11-09 21:44:00+00:00,347.0,11.04,346.0,13.45,12.57,47.59359,-54.27349
2022-11-09 21:54:00+00:00,345.0,10.48,346.0,12.51,12.57,47.59359,-54.27349
2022-11-09 22:04:00+00:00,348.0,9.73,353.0,11.68,12.57,47.59359,-54.27349
2022-11-09 22:14:00+00:00,335.0,11.32,315.0,13.38,12.49,47.59359,-54.27349
2022-11-09 22:24:00+00:00,324.0,11.8,320.0,14.21,12.49,47.59359,-54.27349
2022-11-09 22:34:00+00:00,332.0,12.7,322.0,15.48,12.49,47.59359,-54.27349
2022-11-09 22:44:00+00:00,346.0,11.83,357.0,13.77,12.49,47.59359,-54.27349
2022-11-09 22:54:00+00:00,348.0,11.38,329.0,14.45,12.49,47.59359,-54.27349
2022-11-09 23:04:00+00:00,352.0,11.68,355.0,13.73,12.49,47.59359,-54.27349
2022-11-09 23:14:00+00:00,350.0,9.44,344.0,11.75,12.49,47.59359,-54.27349
2022-11-09 23:24:00+00:00,336.0,7.45,341.0,8.41,12.49,47.59359,-54.27349
2022-11-09 23:34:00+00:00,336.0,8.35,337.0,9.6,12.49,47.59359,-54.27349
2022-11-09 23:44:00+00:00,329.0,9.58,311.0,12.23,12.49,47.59359,-54.27349
2022-11-09 23:54:00+00:00,338.0,11.42,317.0,14.24,12.49,47.59359,-54.27349
